Date,TemperatureHighF,TemperatureAvgF,TemperatureLowF,DewpointHighF,DewpointAvgF,DewpointLowF,HumidityHigh,HumidityAvg,HumidityLow,PressureMaxIn,PressureMinIn,WindSpeedMaxMPH,WindSpeedAvgMPH,GustSpeedMaxMPH,PrecipitationSumIn
2013-1-1,48.6,39.1,30.0,24.6,15.5,9.8,60,39,24,29.53,29.47,21,5,22,0.00
2013-1-2,50.7,40.6,27.9,22.9,14.8,7.8,64,36,24,29.50,29.38,15,5,17,224.37
2013-1-3,50.5,41.9,30.0,25.5,17.4,8.7,64,38,26,29.53,29.41,21,7,22,0.00
2013-1-4,52.2,45.5,39.0,21.4,16.3,12.3,44,31,23,29.53,29.41,17,7,112,0.00
2013-1-5,53.4,43.1,32.5,37.3,26.9,18.8,75,55,29,29.53,29.32,19,5,20,0.00
2013-1-6,47.5,42.3,33.6,37.0,31.4,23.7,77,66,41,29.44,29.29,17,4,18,0.00
2013-1-7,60.1,42.7,31.5,39.7,26.7,17.4,83,58,21,29.53,29.38,13,2,14,0.00
2013-1-8,58.3,47.0,36.5,34.2,23.6,0.0,72,41,22,29.47,29.38,11,4,12,0.00
2013-1-9,52.9,43.7,35.2,45.4,25.7,0.0,97,52,29,29.41,29.21,20,6,20,0.00
2013-1-10,54.9,42.2,34.7,16.3,11.9,0.0,43,30,17,29.44,29.29,13,6,15,0.00
2013-1-11,50.7,40.3,27.1,28.0,13.4,-57.5,59,35,19,29.50,29.35,13,5,14,0.00
2013-1-12,47.1,38.9,29.1,16.7,5.9,-1.5,46,26,19,29.50,29.38,13,4,13,0.00
2013-1-13,45.9,35.5,24.1,7.5,1.8,-4.1,44,25,17,29.53,29.41,15,4,16,0.00
2013-1-14,47.3,37.9,28.6,4.7,-0.2,-3.8,31,20,17,29.65,29.47,19,7,45,0.00
2013-1-15,48.7,37.3,25.3,11.7,5.1,-0.9,42,26,19,29.74,29.65,14,4,16,0.00
2013-1-16,50.4,43.3,34.2,14.2,8.5,3.9,40,24,19,29.68,29.50,20,8,22,0.00
2013-1-17,55.9,47.7,39.0,14.4,9.2,4.7,31,21,17,29.53,29.38,21,9,23,0.00
2013-1-18,59.4,49.4,38.8,16.1,10.7,2.3,28,21,17,29.47,29.38,15,7,16,0.00
2013-1-19,57.6,47.9,34.2,16.4,10.9,-1.5,41,23,17,29.50,29.38,19,6,21,0.00
2013-1-20,58.6,48.9,34.9,21.3,12.4,-4.8,44,24,17,29.47,29.35,15,6,16,0.00
2013-1-21,55.8,48.1,33.3,19.7,14.6,7.3,40,26,20,29.44,29.32,21,8,21,0.00
2013-1-22,59.0,50.5,41.9,23.7,17.1,11.0,41,26,22,29.35,29.23,26,9,29,0.00
2013-1-23,53.4,48.6,43.5,38.3,28.1,20.7,64,45,28,29.35,29.21,14,3,14,0.00
2013-1-24,52.7,50.6,48.7,45.2,38.1,29.5,79,63,42,29.44,29.32,19,4,21,0.00
2013-1-25,63.9,55.2,48.7,48.0,40.4,33.1,84,60,33,29.44,29.29,11,4,12,0.00
2013-1-26,58.6,50.5,45.0,47.4,30.3,14.7,84,52,19,29.32,29.21,18,8,201,370.04
2013-1-27,56.8,45.5,35.8,27.2,18.0,5.9,65,36,17,29.41,29.32,12,5,14,0.00
2013-1-28,58.8,46.0,33.8,26.1,18.8,10.0,60,36,17,29.53,29.38,12,5,13,0.00
2013-1-29,59.2,45.9,35.1,35.1,23.8,15.2,77,46,19,29.59,29.50,10,3,12,0.00
2013-1-30,62.1,51.8,39.0,20.7,15.4,8.4,45,24,16,29.59,29.50,18,6,21,0.00
2013-1-31,60.3,48.2,35.4,26.1,22.0,16.0,56,37,24,29.53,29.41,16,6,17,0.00
2013-2-1,61.2,52.7,43.7,29.6,24.3,20.6,53,34,24,29.44,29.35,18,6,19,0.00
2013-2-2,61.5,49.5,40.3,37.5,29.9,22.9,74,50,25,29.53,29.44,10,3,11,0.00
2013-2-3,61.3,49.8,39.4,40.9,28.3,19.6,80,47,24,29.50,29.35,11,4,11,0.00
2013-2-4,63.0,48.1,34.3,42.4,29.2,19.9,82,53,24,29.41,29.29,9,3,10,0.00
2013-2-5,57.6,49.5,45.9,39.6,27.7,19.3,75,45,25,29.38,29.29,18,9,18,0.00
2013-2-6,61.9,48.0,35.1,52.7,24.8,13.2,81,45,19,29.44,29.32,13,4,14,77.83
2013-2-7,57.9,44.0,33.1,31.8,20.0,8.9,66,40,18,29.44,29.23,20,5,20,0.00
2013-2-8,53.2,41.8,33.3,30.6,21.3,-9.6,72,46,21,29.26,29.18,16,4,16,0.00
2013-2-9,55.9,43.2,31.6,19.1,8.5,0.6,51,25,17,29.35,29.23,18,6,21,0.00
2013-2-10,57.2,42.0,27.0,19.7,13.0,7.6,53,33,17,29.38,29.23,15,3,17,0.00
2013-2-11,60.3,44.2,30.4,22.2,11.8,3.9,59,29,16,29.50,29.32,15,4,16,0.00
2013-2-12,57.6,43.6,31.3,19.4,13.3,6.3,49,31,17,29.59,29.50,13,4,15,0.00
2013-2-13,63.3,46.8,32.0,25.2,18.1,10.1,66,35,16,29.59,29.44,15,2,15,0.00
2013-2-14,64.4,49.9,34.9,28.3,19.7,14.0,68,34,15,29.50,29.38,15,4,16,0.00
2013-2-15,66.0,52.8,36.7,28.3,19.6,10.6,56,29,17,29.50,29.44,15,4,16,0.00
2013-2-16,65.1,50.2,38.1,30.8,24.0,17.5,63,39,18,29.50,29.29,14,4,15,0.00
2013-2-17,63.9,49.5,36.5,40.3,24.0,9.5,82,43,15,29.29,29.18,12,4,15,0.00
2013-2-18,54.0,46.0,35.2,33.7,22.1,14.7,68,41,26,29.26,29.21,24,8,24,0.00
2013-2-19,50.0,42.5,35.6,29.5,19.5,12.8,61,40,27,29.21,29.00,22,7,23,0.00
2013-2-20,59.7,44.5,30.2,27.1,17.9,10.7,62,38,17,29.29,29.09,15,4,16,0.00
2013-2-21,58.6,45.0,35.2,30.2,18.5,8.6,74,39,17,29.41,29.29,23,5,26,0.00
2013-2-22,65.8,47.3,31.3,30.2,19.2,7.1,67,38,15,29.50,29.38,16,4,16,0.00
2013-2-23,57.9,49.3,39.9,35.9,16.7,-0.3,64,30,17,29.47,29.38,17,7,20,0.00
2013-2-24,59.7,48.0,35.6,14.9,7.5,-1.3,33,19,17,29.50,29.38,20,7,21,0.00
2013-2-25,65.8,46.4,30.4,29.3,14.4,-11.0,66,30,15,29.53,29.38,13,3,15,0.00
2013-2-26,66.0,49.0,32.0,30.1,15.4,3.8,73,31,15,29.47,29.35,21,4,21,0.00
2013-2-27,68.5,50.1,31.8,22.7,13.8,7.1,43,25,15,29.59,29.47,9,3,9,0.00
2013-2-28,72.0,53.6,36.9,40.1,26.4,20.2,70,39,16,29.68,29.59,13,3,15,0.00
2013-3-1,69.1,55.1,39.7,51.1,28.2,17.9,83,43,17,29.68,29.47,14,4,14,0.00
2013-3-2,70.9,57.6,44.6,34.2,27.2,20.9,59,33,19,29.50,29.26,10,3,11,0.00
2013-3-3,67.5,55.4,47.5,32.8,26.7,16.2,52,35,17,29.32,29.23,20,7,21,0.00
2013-3-4,64.2,50.6,41.4,30.1,25.3,0.0,55,39,23,29.38,29.26,16,6,16,0.00
2013-3-5,63.7,51.3,38.3,31.3,19.3,8.9,71,32,15,29.32,29.09,24,9,24,0.00
2013-3-6,59.4,49.9,37.0,30.9,19.7,10.6,52,31,19,29.29,29.09,23,8,23,0.00
2013-3-7,61.2,46.5,34.7,36.9,21.2,11.0,68,41,16,29.26,29.09,13,4,15,0.00
2013-3-8,63.5,50.4,41.5,38.9,26.1,13.6,77,44,16,29.29,29.06,22,8,22,0.00
2013-3-9,69.1,51.5,37.6,28.8,20.4,12.1,63,32,15,29.56,29.29,22,6,22,0.00
2013-3-10,73.0,50.9,32.7,26.5,17.6,8.9,63,31,14,29.59,29.47,14,4,15,0.00
2013-3-11,73.8,53.5,36.1,26.0,19.0,13.2,53,29,13,29.50,29.32,12,3,13,0.00
2013-3-12,73.0,55.9,39.0,30.2,22.9,16.6,58,31,13,29.38,29.26,15,4,16,0.00
2013-3-13,74.5,59.4,43.2,35.7,27.1,19.5,66,33,16,29.41,29.29,17,5,19,0.00
2013-3-14,82.9,60.5,46.9,41.3,28.1,15.1,70,34,14,29.38,29.32,13,3,14,0.00
2013-3-15,75.7,56.7,40.8,28.7,21.4,12.8,56,28,13,29.38,29.26,12,3,12,0.00
2013-3-16,77.7,56.8,44.1,45.3,28.6,13.6,79,42,13,29.35,29.23,15,5,18,0.00
2013-3-17,72.0,54.4,37.2,30.3,21.4,13.4,65,31,14,29.38,29.26,15,3,15,0.00
2013-3-18,72.9,54.2,37.4,32.8,21.7,11.2,70,33,13,29.35,29.23,15,3,17,0.00
2013-3-19,77.0,56.0,41.7,32.8,23.2,-5.8,56,32,13,29.35,29.26,19,4,20,0.00
2013-3-20,69.6,57.1,51.1,44.1,34.8,19.5,72,47,17,29.35,29.29,15,6,90,0.00
2013-3-21,65.3,53.4,41.7,34.6,21.6,13.1,57,31,15,29.35,29.23,15,7,18,0.00
2013-3-22,66.7,52.8,38.8,30.8,13.1,-0.3,64,23,15,29.35,29.23,25,8,28,0.00
2013-3-23,70.7,53.0,37.4,19.0,9.9,-1.5,35,18,14,29.38,29.26,13,4,17,0.00
2013-3-24,76.5,55.5,34.0,26.2,17.5,10.8,47,25,13,29.32,29.18,14,3,14,0.00
2013-3-25,68.2,51.4,37.2,33.0,23.1,14.3,69,36,15,29.26,29.15,16,5,19,0.00
2013-3-26,73.4,56.7,46.4,31.0,23.0,13.6,53,30,13,29.23,29.15,12,6,13,0.00
2013-3-27,71.2,56.8,43.5,34.1,26.4,21.0,56,33,16,29.23,29.18,18,7,21,0.00
2013-3-28,73.2,60.5,50.7,40.2,30.1,21.6,64,35,16,29.32,29.23,13,4,13,0.75
2013-3-29,76.3,62.2,50.7,35.7,26.6,19.4,53,28,15,29.32,29.21,18,6,20,0.00
2013-3-30,76.1,61.2,52.9,44.9,30.7,17.6,66,35,14,29.29,29.18,15,5,16,0.00
2013-3-31,69.6,58.9,50.2,49.0,33.2,0.0,78,42,17,29.29,29.21,16,4,20,0.00
2013-4-1,67.5,57.7,48.4,44.7,32.4,22.6,68,41,22,29.38,29.29,12,3,45,0.00
2013-4-2,76.3,57.3,41.2,42.7,30.3,20.7,80,42,15,29.41,29.29,12,3,14,0.00
2013-4-3,76.3,59.1,43.2,50.4,31.0,18.1,82,43,15,29.38,29.18,16,3,16,0.00
2013-4-4,70.2,59.0,50.7,38.3,32.6,26.5,61,38,22,29.35,29.21,16,6,18,0.00
2013-4-5,69.1,58.1,48.7,43.8,29.7,19.3,67,36,17,29.41,29.35,17,7,18,0.00
2013-4-6,70.5,59.1,52.7,35.8,30.2,24.1,52,35,19,29.41,29.35,16,7,18,0.00
2013-4-7,67.8,57.2,50.7,43.3,29.8,21.0,74,38,20,29.41,29.09,23,10,24,0.00
2013-4-8,66.4,54.1,43.7,43.6,18.0,8.9,74,26,15,29.23,29.03,32,12,112,0.00
2013-4-9,72.9,61.7,48.9,20.6,15.0,10.6,27,16,13,29.32,29.23,27,12,27,0.00
2013-4-10,88.2,66.5,46.2,31.4,19.6,7.3,39,18,10,29.41,29.23,16,6,22,0.00
2013-4-11,77.4,60.0,46.4,40.2,26.1,13.6,68,31,13,29.29,29.09,15,6,17,0.00
2013-4-12,83.1,59.4,39.2,39.2,24.9,11.6,74,34,11,29.15,29.03,14,4,16,0.00
2013-4-13,73.9,56.0,44.1,34.2,23.0,11.8,64,31,14,29.15,29.06,20,8,21,0.00
2013-4-14,72.5,55.2,39.7,35.8,22.1,11.3,70,32,13,29.18,29.06,22,8,23,0.00
2013-4-15,61.9,51.9,45.7,41.5,22.0,8.9,72,35,16,29.18,29.06,24,11,28,0.00
2013-4-16,66.2,53.2,35.6,21.8,15.7,0.0,54,25,15,29.38,29.18,24,9,27,0.00
2013-4-17,67.6,57.4,43.9,18.2,12.1,1.9,18,16,15,29.47,29.38,23,10,26,0.00
2013-4-18,75.6,57.8,36.9,21.0,12.5,0.6,23,17,13,29.50,29.38,20,5,20,0.00
2013-4-19,86.9,64.8,41.2,26.0,19.0,9.4,38,19,11,29.47,29.26,15,3,16,0.00
2013-4-20,83.3,63.9,45.5,33.5,21.9,10.9,59,23,11,29.35,29.18,20,5,24,0.00
2013-4-21,88.5,67.0,44.1,26.1,20.9,12.4,40,19,10,29.26,29.15,16,4,19,0.00
2013-4-22,88.0,70.3,50.0,26.1,20.0,11.5,29,16,10,29.21,29.06,19,6,23,0.00
2013-4-23,84.2,69.4,51.4,24.3,18.9,10.7,33,15,11,29.18,29.06,28,8,29,0.00
2013-4-24,83.7,61.2,42.1,35.5,23.6,15.2,59,28,11,29.18,29.03,16,6,17,0.00
2013-4-25,74.3,59.8,49.6,40.3,28.2,17.6,67,34,13,29.38,29.18,18,9,18,0.00
2013-4-26,81.7,62.3,50.7,29.7,25.3,14.5,42,27,11,29.44,29.35,13,7,16,0.00
2013-4-27,90.7,64.9,47.8,36.9,26.4,12.2,64,29,10,29.44,29.26,13,5,15,0.00
2013-4-28,89.8,68.7,45.9,36.7,26.3,15.2,65,25,10,29.29,29.09,13,3,15,0.00
2013-4-29,93.9,74.5,53.4,32.4,24.4,15.8,36,17,10,29.12,28.97,26,6,27,0.00
2013-4-30,84.0,68.8,48.7,35.7,24.6,18.2,57,22,11,29.09,29.00,25,7,30,0.00
2013-5-1,84.6,72.4,61.5,24.0,19.6,14.9,16,14,11,29.29,29.06,29,11,112,0.00
2013-5-2,93.4,74.6,57.0,32.1,21.2,12.4,17,14,10,29.38,29.29,19,6,20,0.00
2013-5-3,95.7,73.5,49.6,32.7,20.7,5.0,19,14,10,29.32,29.03,14,3,15,0.00
2013-5-4,93.0,71.9,52.2,32.4,20.0,9.8,25,14,10,29.03,28.76,22,6,22,0.00
2013-5-5,73.0,62.0,52.7,24.0,19.4,0.0,31,20,13,29.03,28.82,17,7,18,0.00
2013-5-6,73.0,61.4,56.7,42.1,26.7,17.4,51,28,13,29.21,29.03,13,5,15,0.00
2013-5-7,77.9,63.0,52.3,37.8,25.9,15.1,55,27,13,29.26,29.18,17,6,17,0.00
2013-5-8,73.0,57.8,50.4,41.7,29.9,15.6,67,40,14,29.38,29.26,20,8,22,0.00
2013-5-9,77.0,60.4,52.0,34.4,28.0,16.8,50,32,14,29.41,29.29,16,9,17,0.00
2013-5-10,84.2,63.8,52.2,37.2,29.1,16.4,54,31,12,29.41,29.29,16,8,19,393.66
2013-5-11,97.9,72.3,49.1,42.4,28.9,14.2,64,25,10,29.38,29.23,16,4,16,0.00
2013-5-12,91.6,71.1,51.4,31.7,24.3,13.6,39,19,10,29.35,29.23,19,6,20,0.00
2013-5-13,89.2,68.2,52.7,31.6,23.8,16.8,38,20,10,29.32,29.18,17,6,17,0.00
2013-5-14,83.3,64.5,51.4,38.4,25.1,13.7,56,25,11,29.26,29.15,17,8,19,0.00
2013-5-15,71.8,58.5,48.6,31.4,22.5,15.1,45,27,14,29.26,29.23,22,11,24,0.00
2013-5-16,75.6,59.9,53.6,45.2,30.8,14.1,65,37,15,29.26,29.18,22,11,22,0.00
2013-5-17,73.4,59.7,51.4,28.5,22.3,12.4,39,25,13,29.32,29.21,19,11,22,0.00
2013-5-18,80.8,62.4,48.9,31.0,24.1,15.1,43,26,12,29.35,29.29,18,8,18,0.00
2013-5-19,85.3,66.6,46.4,41.7,24.8,12.2,70,26,11,29.35,29.18,21,5,22,0.00
2013-5-20,93.0,70.4,46.9,70.7,19.5,0.0,97,15,10,29.23,29.15,19,6,21,0.00
2013-5-21,73.4,59.6,50.7,28.5,21.0,13.6,40,24,13,29.21,29.15,27,11,27,0.00
2013-5-22,72.3,55.9,39.2,25.6,18.4,10.6,50,25,14,29.23,29.12,21,8,25,0.00
2013-5-23,73.6,57.5,47.3,24.3,19.5,10.6,39,24,13,29.23,29.15,18,9,20,0.00
2013-5-24,79.0,58.3,40.1,38.2,21.1,10.6,66,27,12,29.23,29.18,19,7,22,0.00
2013-5-25,72.3,56.8,45.0,32.9,23.2,-0.1,57,30,14,29.29,29.21,23,10,23,0.00
2013-5-26,74.5,61.1,53.1,37.9,28.1,16.4,52,32,13,29.35,29.29,20,12,23,0.00
2013-5-27,70.5,59.5,53.2,41.6,29.4,23.1,54,33,19,29.35,29.23,17,10,18,0.00
2013-5-28,74.8,63.9,55.9,46.2,31.9,18.2,65,34,13,29.23,29.15,17,9,19,0.00
2013-5-29,74.7,62.7,53.6,32.0,26.0,17.9,40,26,13,29.21,29.12,19,10,20,0.00
2013-5-30,84.4,63.6,45.9,39.6,24.8,12.4,71,28,11,29.23,29.15,17,6,17,0.00
2013-5-31,93.7,70.6,44.6,32.3,23.6,15.2,48,19,10,29.23,29.12,18,4,21,0.00
2013-6-1,100.0,77.2,52.3,34.4,23.0,10.7,23,14,10,29.18,29.00,18,5,19,0.00
2013-6-2,96.3,74.1,55.8,33.2,23.1,14.2,27,16,10,29.03,28.88,15,5,16,0.00
2013-6-3,88.5,68.3,53.4,31.5,26.0,15.2,41,23,10,29.09,28.94,16,8,18,0.00
2013-6-4,81.0,64.8,52.7,37.8,28.2,16.8,56,29,12,29.18,29.09,20,9,20,0.00
2013-6-5,83.5,65.1,53.6,36.1,27.9,15.6,51,28,11,29.23,29.12,15,9,17,0.00
2013-6-6,90.7,68.4,52.9,38.5,30.4,17.8,56,29,11,29.18,29.06,15,8,15,0.00
2013-6-7,104.9,77.8,53.4,41.2,31.8,19.6,59,24,10,29.12,28.94,15,5,15,0.00
2013-6-8,110.1,83.1,61.9,41.1,26.7,16.4,21,13,10,29.03,28.88,22,6,26,0.00
2013-6-9,83.7,67.6,58.3,33.6,28.3,20.9,38,24,13,29.12,29.03,23,11,24,0.00
2013-6-10,78.8,64.6,56.3,36.1,27.0,18.9,46,26,12,29.18,29.09,21,10,24,0.00
2013-6-11,87.8,67.8,54.1,36.3,28.2,17.6,50,26,11,29.21,29.12,14,6,16,0.00
2013-6-12,87.1,66.5,49.5,36.0,23.9,13.6,56,22,10,29.23,29.15,20,7,20,0.00
2013-6-13,87.6,67.3,48.7,33.9,24.0,12.5,55,23,10,29.32,29.23,15,6,16,0.00
2013-6-14,92.7,71.2,48.9,32.3,20.4,10.6,24,15,10,29.23,29.06,16,5,17,0.00
2013-6-15,87.1,65.6,51.3,33.6,23.6,10.6,47,23,10,29.26,29.09,17,6,18,0.00
2013-6-16,88.5,66.6,48.4,40.8,26.5,16.4,65,27,10,29.32,29.23,20,8,22,0.00
2013-6-17,78.6,63.3,50.5,44.2,29.1,20.3,63,31,12,29.32,29.26,20,10,21,0.00
2013-6-18,73.8,61.9,54.5,40.2,27.0,15.5,55,30,13,29.29,29.21,23,14,24,0.00
2013-6-19,80.2,64.2,52.7,33.8,24.8,15.2,46,25,12,29.29,29.23,18,9,22,0.00
2013-6-20,86.2,65.3,48.4,40.4,24.8,15.5,61,25,11,29.26,29.15,17,6,18,0.00
2013-6-21,90.0,68.7,48.7,39.9,25.5,13.6,69,24,10,29.23,29.15,17,6,19,0.00
2013-6-22,96.4,71.9,49.6,33.4,25.2,15.6,41,19,10,29.18,29.06,19,6,21,0.00
2013-6-23,73.6,63.8,57.4,44.0,35.6,28.9,60,37,21,29.12,29.06,19,10,22,0.00
2013-6-24,73.6,65.4,61.2,47.2,38.6,30.5,59,39,22,29.15,29.03,12,5,12,0.00
2013-6-25,82.0,71.1,61.5,42.4,35.4,29.6,46,29,16,29.23,29.15,22,7,22,0.00
2013-6-26,92.3,75.3,61.2,51.2,35.5,21.2,65,29,12,29.29,29.21,16,6,17,0.00
2013-6-27,99.1,78.5,57.4,53.7,33.3,18.5,67,24,10,29.29,29.23,15,5,17,0.00
2013-6-28,108.3,85.6,60.6,39.6,29.8,19.8,27,14,10,29.26,29.12,18,4,20,0.00
2013-6-29,109.2,86.8,62.2,40.7,27.6,15.1,16,12,10,29.15,29.03,16,5,18,0.00
2013-6-30,105.6,84.0,66.2,38.0,26.1,16.9,15,12,10,29.09,29.00,16,4,17,0.00
2013-7-1,107.2,85.1,64.2,39.0,28.6,17.4,23,14,10,29.09,29.03,15,5,16,0.00
2013-7-2,110.8,86.7,69.4,41.9,28.1,18.4,17,12,10,29.15,29.06,13,5,16,0.00
2013-7-3,107.6,78.2,63.1,39.3,30.6,18.4,34,19,10,29.15,29.03,12,4,14,0.00
2013-7-9,91.8,59.0,0.0,49.9,30.6,0.0,24,15,22,29.23,29.15,0,0,0,0.00
2013-7-19,89.4,89.3,89.2,49.0,48.9,48.8,25,25,25,29.09,29.09,0,0,0,0.00
2013-8-3,87.3,80.0,77.4,30.5,23.5,21.4,13,12,10,29.18,29.18,13,7,15,0.00
2013-8-4,87.8,73.5,56.3,40.1,26.7,7.4,54,20,11,29.32,29.18,16,8,16,0.00
2013-8-5,88.3,67.0,54.9,39.2,31.2,15.6,53,31,11,29.32,29.21,15,8,15,0.00
2013-8-6,81.3,64.5,55.8,39.6,31.2,18.6,52,33,12,29.35,29.26,20,10,20,0.00
2013-8-7,79.5,65.6,57.6,42.0,30.9,19.2,56,31,12,29.38,29.32,19,10,20,0.00
2013-8-8,84.4,66.3,57.2,45.3,32.7,18.2,62,33,12,29.35,29.21,17,9,17,0.00
2013-8-9,81.1,65.6,56.5,40.2,31.0,19.8,53,31,14,29.29,29.21,15,9,18,0.00
2013-8-10,84.7,69.8,58.8,43.7,30.0,18.9,56,28,11,29.32,29.26,19,10,19,0.00
2013-8-11,88.7,69.2,57.2,43.7,33.0,17.8,56,31,11,29.32,29.21,16,8,16,0.00
2013-8-12,91.4,70.6,53.2,45.6,30.4,13.6,69,28,10,29.29,29.23,15,6,15,0.00
2013-8-13,99.3,74.2,52.0,36.7,27.0,14.9,54,20,10,29.29,29.18,16,4,16,0.00
2013-8-14,93.0,72.3,55.4,33.4,27.1,17.8,42,21,10,29.26,29.21,15,7,15,0.00
2013-8-15,92.8,81.2,65.1,45.5,32.5,24.9,49,19,11,29.26,29.21,16,9,16,0.00
2013-8-16,95.4,75.0,59.4,60.5,36.9,16.4,85,35,11,29.26,29.21,17,6,19,0.00
2013-8-17,91.9,70.7,57.4,37.5,29.4,19.5,41,24,10,29.29,29.18,17,6,18,0.00
2013-8-18,99.0,77.5,54.9,46.1,32.6,18.9,66,25,10,29.21,29.06,12,3,12,0.00
2013-8-19,107.4,83.0,65.5,39.3,26.3,17.1,17,13,10,29.21,29.09,17,5,17,0.00
2013-8-20,95.4,75.1,61.9,35.8,27.4,16.4,37,18,11,29.18,29.09,15,8,15,0.00
2013-8-21,88.9,69.4,57.4,43.2,30.9,17.9,58,27,11,29.23,29.12,14,8,14,0.00
2013-8-22,82.8,68.2,57.4,38.7,27.8,17.8,49,25,12,29.23,29.18,18,10,18,0.00
2013-8-23,86.4,67.6,57.4,38.9,30.9,18.1,49,29,11,29.23,29.12,15,8,15,0.00
2013-8-24,86.7,68.7,55.8,45.5,33.5,20.6,67,33,11,29.21,29.15,19,9,19,0.00
2013-8-25,91.2,71.6,61.2,49.2,37.0,23.7,63,33,12,29.23,29.18,16,8,16,0.00
2013-8-26,86.4,69.7,57.4,41.0,31.3,18.1,45,27,11,29.32,29.21,15,8,15,0.00
2013-8-27,92.1,70.5,53.1,46.6,31.9,19.0,63,29,10,29.23,29.12,16,6,18,0.00
2013-8-28,90.3,71.3,57.0,50.7,36.9,22.8,73,35,11,29.26,29.15,16,7,16,0.00
2013-8-29,89.8,72.3,61.7,52.3,38.2,23.6,69,35,12,29.35,29.26,17,8,17,0.00
2013-8-30,100.0,76.4,57.0,52.5,35.2,19.0,74,30,10,29.35,29.21,14,4,15,0.00
2013-8-31,91.9,72.9,57.0,34.7,27.8,17.6,37,20,10,29.26,29.18,16,6,16,0.00
2013-9-1,91.8,71.7,59.7,40.1,32.1,19.5,46,27,11,29.23,29.15,20,8,20,0.00
2013-9-2,86.5,71.3,64.9,47.8,36.1,23.8,48,30,13,29.26,29.18,17,9,17,0.00
2013-9-3,82.9,69.4,58.1,49.6,32.1,18.9,63,30,11,29.29,29.23,20,9,20,0.00
2013-9-4,84.9,69.1,59.7,41.2,32.6,18.9,50,30,11,29.32,29.23,18,10,18,0.00
2013-9-5,84.4,68.3,58.5,43.9,32.0,19.0,55,29,11,29.32,29.23,18,10,20,0.00
2013-9-6,90.7,71.3,50.5,48.3,30.4,15.1,73,29,10,29.29,29.15,17,5,17,0.00
2013-9-7,98.4,77.2,56.3,34.1,22.8,12.1,17,13,10,29.18,29.09,14,3,15,0.00
2013-9-8,99.3,78.3,56.8,34.4,23.5,12.5,19,13,10,29.18,29.03,13,3,13,0.00
2013-9-9,101.5,78.5,59.7,34.9,23.2,13.6,17,13,10,29.12,29.00,17,4,17,0.00
2013-9-10,88.2,71.0,61.3,42.2,29.9,15.1,49,24,11,29.21,29.03,19,8,19,0.00
2013-9-11,82.6,67.1,57.6,43.2,33.9,22.2,55,33,14,29.29,29.18,17,9,17,0.00
2013-9-12,86.5,69.3,60.6,44.6,35.9,22.3,54,33,13,29.29,29.15,15,8,15,0.00
2013-9-13,89.4,68.2,57.9,44.7,34.5,17.9,55,34,11,29.23,29.06,15,8,17,0.00
2013-9-14,78.4,64.1,56.8,44.1,34.6,22.3,62,37,15,29.15,29.03,15,9,15,0.00
2013-9-15,83.1,66.7,56.7,47.2,33.7,19.8,59,34,12,29.18,29.12,18,10,18,0.00
2013-9-16,87.1,69.0,59.7,47.1,35.1,19.0,59,34,11,29.21,29.09,17,8,17,0.00
2013-9-17,76.3,64.6,55.4,39.0,29.6,21.0,47,29,15,29.21,29.15,22,11,23,0.00
2013-9-18,87.4,66.0,49.5,41.5,25.2,10.6,68,26,10,29.23,29.12,19,5,19,0.00
2013-9-19,90.1,69.8,47.8,32.2,20.4,9.1,28,16,10,29.18,29.03,12,3,12,0.00
2013-9-20,76.8,64.8,52.2,36.8,26.6,10.0,45,24,15,29.18,29.09,21,9,21,0.00
2013-9-21,71.1,62.3,57.2,52.7,36.6,21.7,74,40,16,29.21,29.12,19,7,19,0.00
2013-9-22,77.5,63.4,54.9,49.3,34.6,18.4,75,41,13,29.32,29.21,14,5,14,0.00
2013-9-23,83.7,66.3,50.0,46.9,32.9,21.4,74,35,11,29.32,29.21,13,4,13,0.00
2013-9-24,77.5,64.1,55.2,49.4,31.8,18.8,70,34,13,29.29,29.21,22,9,23,0.00
2013-9-25,74.1,61.1,52.0,29.7,22.8,15.1,37,24,13,29.23,29.12,19,9,19,0.00
2013-9-26,75.9,58.6,42.6,38.6,21.5,9.2,74,28,13,29.29,29.15,19,4,20,0.00
2013-9-27,76.3,62.9,48.7,21.9,16.0,9.1,27,16,13,29.41,29.29,16,5,16,0.00
2013-9-28,89.1,64.9,45.0,39.3,17.7,5.7,48,17,10,29.38,29.26,12,3,12,0.00
2013-9-29,83.7,65.5,51.3,48.7,34.4,21.2,76,37,12,29.41,29.32,15,6,15,0.00
2013-9-30,79.3,66.9,56.8,50.5,36.1,23.6,72,37,15,29.38,29.26,15,6,15,0.00
2013-10-1,80.2,63.0,51.6,43.2,24.8,15.1,55,26,12,29.32,29.21,15,6,15,0.00
2013-10-2,85.8,61.9,46.8,29.5,22.4,13.6,48,24,11,29.32,29.23,17,4,17,0.00
2013-10-3,72.3,61.3,44.2,27.8,19.0,12.9,48,21,14,29.38,29.23,28,11,28,0.00
2013-10-4,77.7,66.9,56.3,23.0,17.4,11.9,17,15,13,29.41,29.26,30,13,30,0.00
2013-10-5,81.3,66.3,48.4,23.9,16.8,4.3,19,15,12,29.50,29.41,15,5,15,0.00
2013-10-6,82.9,64.5,45.3,24.3,15.2,2.9,19,15,11,29.44,29.29,16,5,17,0.00
2013-10-7,89.6,66.7,48.2,30.3,16.7,4.1,19,15,10,29.29,29.18,12,2,13,0.00
2013-10-8,81.1,62.2,46.8,28.0,15.8,3.7,37,17,12,29.21,29.03,20,5,20,0.00
2013-10-9,72.9,57.3,46.0,34.1,22.1,8.9,56,29,13,29.06,28.94,13,5,13,0.00
2013-10-10,77.0,59.3,44.8,22.6,17.3,12.1,31,20,13,29.29,29.06,13,3,13,0.00
2013-10-11,76.8,57.9,42.8,35.2,23.3,13.3,62,30,13,29.38,29.26,11,3,13,0.00
2013-10-12,77.5,57.0,39.9,35.6,22.8,12.4,63,31,13,29.32,29.18,16,4,16,0.00
2013-10-13,73.2,57.3,43.0,41.0,24.1,7.9,77,35,13,29.38,29.23,15,3,15,0.00
2013-10-14,75.7,58.7,41.9,21.5,15.7,4.3,31,19,13,29.44,29.29,16,4,16,0.00
2013-10-15,77.4,61.0,43.3,22.7,14.3,3.2,20,16,13,29.35,29.26,16,5,17,0.00
2013-10-16,80.8,61.9,44.2,23.4,13.8,2.0,19,15,12,29.41,29.32,12,3,14,0.00
2013-10-17,85.3,62.6,45.1,24.9,14.3,2.8,19,15,11,29.38,29.26,11,2,11,0.00
2013-10-18,82.6,62.9,44.6,24.5,14.2,2.5,19,15,11,29.35,29.26,12,3,12,0.00
2013-10-19,81.7,62.8,44.2,24.0,15.0,3.5,20,16,12,29.38,29.29,18,4,18,0.00
2013-10-20,87.1,63.1,43.5,26.0,15.0,3.4,20,16,10,29.32,29.18,12,2,12,0.00
2013-10-21,81.1,61.3,44.4,25.2,17.6,6.7,42,19,12,29.29,29.18,11,2,11,0.00
2013-10-22,80.4,61.3,42.3,32.7,21.8,13.6,57,25,12,29.32,29.21,13,3,13,0.00
2013-10-23,85.8,60.1,43.7,36.9,26.1,14.8,68,32,11,29.26,29.15,11,3,11,0.00
2013-10-24,64.8,55.0,48.4,40.2,30.8,19.3,64,43,20,29.41,29.26,15,7,15,0.00
2013-10-25,78.8,59.8,47.3,39.9,26.8,12.8,71,34,12,29.47,29.35,11,3,12,0.00
2013-10-26,78.3,59.3,42.4,33.0,21.4,9.2,59,27,12,29.44,29.29,17,3,17,0.00
2013-10-27,65.5,54.0,42.4,41.5,21.0,5.4,73,29,18,29.32,29.00,29,10,29,0.00
2013-10-28,64.8,55.4,50.4,33.1,24.1,13.1,51,32,15,29.15,29.00,20,10,23,0.00
2013-10-29,68.9,56.1,44.1,31.6,22.9,13.2,50,29,15,29.35,29.15,13,4,13,0.00
2013-10-30,68.7,52.3,39.0,35.5,21.3,10.0,70,35,15,29.44,29.35,13,2,13,0.00
2013-10-31,71.1,54.8,39.2,29.6,18.7,8.0,55,28,14,29.50,29.35,13,3,13,0.00
2013-11-1,72.5,57.7,41.7,23.3,16.1,6.8,41,20,14,29.44,29.32,24,6,24,0.00
2013-11-2,77.9,56.4,39.7,36.9,20.8,11.5,62,28,13,29.35,29.21,15,4,15,0.00
2013-11-3,64.8,55.2,43.3,36.5,12.8,1.8,65,19,15,29.35,29.23,23,6,24,0.00
2013-11-4,67.5,55.1,35.8,18.1,11.1,-1.3,27,17,15,29.35,29.23,23,8,23,0.00
2013-11-5,69.1,59.3,46.4,19.4,13.5,3.5,19,16,14,29.53,29.35,16,6,16,0.00
2013-11-6,68.7,57.7,41.2,19.2,11.9,0.9,19,16,14,29.56,29.47,22,7,22,0.00
2013-11-7,78.3,58.8,45.0,23.1,13.1,2.8,19,16,12,29.47,29.35,9,2,10,0.00
2013-11-8,78.4,57.8,41.7,27.8,17.1,3.8,42,22,12,29.38,29.23,10,2,11,0.00
2013-11-9,71.4,56.1,42.1,33.2,20.7,10.4,64,28,14,29.35,29.26,16,5,16,0.00
2013-11-10,73.0,54.8,40.1,33.8,21.1,13.2,56,29,13,29.41,29.32,9,2,9,0.00
2013-11-11,67.5,55.1,40.8,45.8,27.2,13.7,84,41,17,29.47,29.38,14,3,14,0.00
2013-11-12,76.1,59.9,46.6,24.0,18.0,8.9,27,20,13,29.56,29.44,12,3,13,0.00
2013-11-13,79.5,57.9,41.4,23.0,17.8,10.2,42,23,12,29.56,29.38,14,2,14,0.00
2013-11-14,74.5,55.0,42.1,43.1,27.5,17.1,74,39,13,29.41,29.18,13,4,13,0.00
2013-11-15,67.5,52.3,39.2,39.8,21.5,9.4,72,34,15,29.18,29.03,22,4,22,0.00
2013-11-16,65.3,50.8,37.4,37.0,23.2,11.7,68,37,15,29.23,29.09,14,5,14,0.00
2013-11-17,66.0,52.9,41.0,39.1,26.5,17.7,75,40,17,29.41,29.23,12,3,12,0.00
2013-11-18,63.0,50.1,37.9,37.2,26.0,16.1,76,43,18,29.44,29.38,16,4,16,0.00
2013-11-19,65.1,55.0,44.6,50.2,33.8,22.0,81,48,20,29.41,29.26,11,2,11,0.00
2013-11-20,64.6,56.9,53.2,56.8,48.3,33.5,86,74,33,29.26,29.15,12,3,12,0.00
2013-11-21,59.0,53.1,48.4,46.1,19.2,9.1,78,31,17,29.29,29.21,32,14,33,0.00
2013-11-22,67.1,54.7,46.4,17.8,11.1,5.0,21,17,15,29.32,29.21,30,13,30,0.00
2013-11-23,60.6,49.3,38.7,19.6,13.2,4.7,44,24,16,29.41,29.29,14,4,15,0.00
2013-11-24,63.1,47.5,35.8,29.4,21.4,14.3,67,39,16,29.56,29.41,11,2,11,0.00
2013-11-25,60.8,48.2,36.1,33.9,23.0,14.6,71,41,19,29.65,29.56,16,4,16,0.00
2013-11-26,59.2,51.9,42.4,28.4,21.3,14.6,55,31,19,29.59,29.35,20,7,20,0.00
2013-11-27,59.2,52.9,47.3,28.1,23.0,17.7,46,31,25,29.35,29.15,18,9,19,0.00
2013-11-28,66.7,54.2,42.3,24.9,18.1,10.6,46,26,15,29.38,29.18,13,4,13,0.00
2013-11-29,67.5,51.1,37.6,27.6,19.6,11.8,55,32,15,29.53,29.38,12,2,12,0.00
2013-11-30,66.4,50.1,37.4,30.1,20.6,11.9,60,34,15,29.59,29.47,13,3,13,0.00
2013-12-1,69.1,51.6,38.1,29.2,20.5,10.9,63,33,14,29.65,29.50,13,2,13,0.00
2013-12-2,69.6,52.3,36.7,43.2,26.8,16.5,69,41,14,29.53,29.26,16,5,16,0.00
2013-12-3,55.4,47.9,35.2,47.5,16.1,0.2,75,30,18,29.26,29.15,23,7,23,0.00
2013-12-4,48.4,38.4,24.8,4.8,-0.4,-8.8,22,19,16,29.41,29.26,21,5,21,0.00
2013-12-5,48.4,34.7,22.3,5.0,-3.1,-10.9,22,19,16,29.50,29.38,12,4,12,0.00
2013-12-6,55.6,40.2,22.6,37.5,8.4,-9.4,68,28,17,29.50,29.21,20,4,20,0.00
2013-12-7,48.6,41.2,28.4,39.9,16.1,1.2,78,40,17,29.56,29.21,22,7,24,0.00
2013-12-8,41.2,33.1,27.3,19.2,4.7,-1.8,61,31,21,29.65,29.53,14,5,15,0.00
2013-12-9,43.7,36.2,28.4,5.0,0.4,-5.7,26,21,18,29.74,29.62,16,8,16,0.00
2013-12-10,40.5,35.4,33.6,8.5,3.7,1.2,30,26,23,29.71,29.68,14,7,14,0.00
2013-12-11,50.0,42.6,29.7,11.6,7.7,4.2,41,24,19,29.56,29.47,22,9,22,0.00
2013-12-12,57.2,44.2,33.3,18.1,9.0,2.3,47,24,17,29.56,29.47,16,5,16,0.00
2013-12-13,60.1,42.1,27.1,18.0,11.0,0.3,57,30,17,29.65,29.53,13,2,14,0.00
2013-12-14,55.6,43.3,28.8,16.6,10.6,4.6,48,27,17,29.71,29.59,19,5,19,0.00
2013-12-15,58.8,50.3,38.3,15.3,11.7,5.7,33,21,17,29.68,29.56,17,6,17,0.00
2013-12-16,62.1,53.8,47.3,15.4,11.5,7.0,21,18,16,29.56,29.41,24,8,24,0.00
2013-12-17,60.4,52.0,39.7,17.0,12.2,4.1,33,20,16,29.47,29.35,20,7,20,0.00
2013-12-18,67.3,52.1,41.0,31.8,19.7,10.7,52,30,15,29.35,29.09,15,5,16,0.00
2013-12-19,58.5,49.3,39.0,34.1,16.4,3.2,74,31,16,29.23,29.03,28,10,28,0.00
2013-12-20,59.7,48.2,36.7,14.7,5.8,-1.7,19,17,16,29.32,29.23,21,6,23,0.00
2013-12-21,65.3,46.6,30.4,19.4,7.2,-5.6,42,20,15,29.41,29.26,13,2,13,0.00
2013-12-22,61.7,48.0,34.7,20.7,12.9,4.8,49,26,16,29.59,29.41,11,3,11,0.00
2013-12-23,59.7,47.6,33.8,20.6,13.7,8.2,49,27,17,29.68,29.59,16,5,17,0.00
2013-12-24,66.0,50.3,35.1,23.2,14.8,5.0,55,26,15,29.65,29.50,18,4,18,0.00
2013-12-25,59.7,51.3,39.0,17.3,13.5,8.3,32,22,17,29.59,29.50,21,8,21,0.00
2013-12-26,62.6,53.4,42.4,20.8,15.2,7.4,31,22,16,29.56,29.47,21,6,21,0.00
2013-12-27,58.8,48.9,35.1,26.5,15.4,8.0,54,27,19,29.53,29.41,15,6,15,0.00
2013-12-28,65.1,48.4,30.6,21.5,12.8,2.9,56,27,15,29.47,29.32,21,4,24,0.00
2013-12-29,61.2,52.5,39.4,15.0,9.7,0.0,21,18,16,29.50,29.38,20,6,20,0.00
2013-12-30,63.0,47.0,33.1,18.0,11.2,2.0,41,24,16,29.56,29.47,15,5,15,0.00
2013-12-31,60.8,45.4,32.9,20.2,12.0,0.9,50,28,16,29.56,29.44,18,4,18,0.00
2014-1-1,64.2,46.6,29.3,16.7,8.4,-0.6,41,22,15,29.53,29.41,13,3,13,0.00
2014-1-2,63.0,51.2,38.8,16.1,9.4,0.6,21,18,16,29.47,29.35,21,6,21,0.00